Regional Weather Roundup
Issued by NWS Charleston, SC

Current Version | Previous Version | Graphics & Text | Print | Product List | Glossary On
Versions: 1 2 3 4 5 6 7 8 9 10 11 12 13 14 15 16 17 18 19 20 21 22 23 24 25 26 27 28 29 30 31 32 33 34 35 36 37 38 39 40 41 42 43 44 45 46 47 48 49 50
000
ASUS42 KCHS 210325
RWRCHS

REGIONAL WEATHER ROUNDUP
NATIONAL WEATHER SERVICE CHARLESTON SC
1100 PM EDT MON OCT 20 2014

NOTE: "FAIR" INDICATES FEW OR NO CLOUDS BELOW 12,000 FEET WITH NO
SIGNIFICANT WEATHER AND/OR OBSTRUCTIONS TO VISIBILITY.

NOT ALL STATIONS ARE QUALITY CONTROLLED BY THE NATIONAL
WEATHER SERVICE. USE DATA WITH CAUTION...ESPECIALLY
DEWPOINT OBSERVATIONS.

SCZ027-030-031-034>040-042>050-210400-
...SOUTH CAROLINA...

CITY           SKY/WX    TMP DP  RH WIND       PRES   REMARKS
N CHARLESTON   MOCLDY    67  60  78 CALM      30.01F
WATERFRONT PRK   N/A     70 N/A N/A CALM        N/A
FORT JOHNSON   NOT AVBL
JOHNS ISLAND   MOCLDY    64  64 100 CALM      30.01F
PINOPOLIS        N/A     68  59  73 S2        29.94S
MONCKS CORNER  FAIR      61  61 100 CALM      30.01F
SUMMERVILLE    FAIR      61  61 100 CALM      30.02S
BEAUFORT MCAS  MOCLDY    66  63  90 CALM      30.00F
BEAUFORT ARPT  MOCLDY    68  66  94 CALM      29.99F
HILTON HEAD IS CLOUDY    64  63  94 CALM      30.01S
GEORGETOWN     NOT AVBL
WALTERBORO     PTCLDY    61 N/A N/A CALM      30.01F
ORANGEBURG     PTCLDY    58  55  90 CALM      30.01S
BARNWELL       FAIR      57  55  94 CALM      30.02S
AIKEN          FAIR      54  52  94 CALM      30.04F
MANNING        FAIR      59 N/A N/A CALM      30.01S
KINGSTREE      NOT AVBL
COLUMBIA       CLEAR     56  51  84 W3        30.00F
SUMTER         PTCLDY    56  54  91 CALM      29.99S
FLORENCE       PTCLDY    58  55  90 CALM      30.00F
MYRTLE BEACH   PTCLDY    61  57  88 SW3       30.01S
N MYRTLE BEACH PTCLDY    59  57  93 CALM      30.00F FOG

$$

GAZ063-065-086>088-099>101-113>116-118-119-134-136>141-150-210400-
...GEORGIA...

CITY           SKY/WX    TMP DP  RH WIND       PRES   REMARKS
SAVANNAH ARPT  MOCLDY    67  62  84 CALM      30.00S
HUNTER AAF     MOCLDY    66  63  91 CALM      29.98S
FORT STEWART   MOCLDY    64  62  92 CALM      29.98S
STATESBORO     NOT AVBL
SYLVANIA       PTCLDY    67  65  94 CALM      30.02S
CLAXTON        CLOUDY    64  64 100 CALM      30.00F
THOMSON        CLEAR     54  54 100 CALM      30.06S
AUGUSTA-BUSH   CLEAR     55  49  80 CALM      30.01S
AUGUSTA-DANIEL CLEAR     64  51  62 CALM      30.02S
SWAINSBORO     FAIR      61  61 100 MISG      30.02S
VIDALIA        PTCLDY    64  61  88 CALM      30.02S
ALMA           PTCLDY    64  62  93 CALM      30.00R
WAYCROSS       CLOUDY    68  67  97 CALM      30.00R
JESUP          FAIR      66  64  94 CALM      30.00R
BRUNSWICK      MOCLDY    64  63  94 CALM      30.00S
SAINT SIMONS   MOCLDY    71  67  87 S5        29.99S

$$

SCZ027-028-034-036>038-045-046-048>050-GAZ119-141-210400-
...LAKE AND SUPPLEMENTAL COASTAL OBSERVATIONS...

STATION/POSITION TIME  TEMP    WIND        PRES    WAVE   SWELL
                       AIR SEA DIR/SP/G            HT/PER HT/PER/DIR
                 (UTC) (F)     (DEG/KT/KT) (MB)    (FT/S) (FT/S/D)
UPR LAKE MARION  NOT AVBL
WINYAH BAY       0300   62        CALM     1016.0S
LAKE MURRAY      0200   62        CALM     1015.6S
ACE BASIN NERRS  0300   64        CALM     1016.0S
FORT PULASKI     NOT AVBL
SAPELO ISLAND    NOT AVBL

$$

ANZ835-935-AMZ111-154-330-350-352-354-374-450-454-472-210400-
...C-MAN AND BUOY OBSERVATIONS...

STATION/POSITION TIME  TEMP    WIND        PRES    WAVE   SWELL
                       AIR SEA DIR/SP/G            HT/PER HT/PER/DIR
                 (UTC) (F)     (DEG/KT/KT) (MB)    (FT/S) (FT/S/D)
FOLLY BEACH CMAN 0300   72      CALM  /  4 1016.6F
BUOY 41004       0300   76 80  270/  4/  6 1016.0R   2/ 9   2/ 9
BUOY 41008       0300   76 76  180/  8/ 10 1015.7F   2/10   2/ 70/10
5E ST. MARYS GA  0300      77                N/A     2/10   2/100/12
FRYING PAN BUOY  0300   74 75  260/ 12/ 16 1016.5R   3/ 9   2/ 80/ 9
BUOY 41025       0300   72     180/ 16/ 19 1016.9F   4/ 9   3/ 80/ 9
CAPE LOOKOUT NC  0300   73     170/ 10/ 12 1015.8F
BUOY 41002       0248   75 80  150/ 14/ 16 1017.9F   4/ 9   3/ 50/ 9
BUOY 41010       0300   80 80  170/ 12/ 14 1015.8F   3/ 9   2/ 60/ 9
BUOY 41012       NOT AVBL
ST AUGUSTINE FL  0300   77     150/ 11/ 12 1015.9F
CAPERS NEARSHORE 0200   73     200/  4/  6   N/A
FRIPP NEARSHORE  NOT AVBL


$$



USA.gov is the U.S. government's official web portal to all federal, state and local government web resources and services.